| time (UTC) | temp C | wind direction | speed KPH | gust KPH | rain 1hr cm | rain 24hr cm | rain mn cm | humidity % | barometer mb |
| 20260506134546 | 6 | 0 | 0.0 | 0.0 | 0.00 | 0.00 | 0.00 | 88 | 1020.7 |
| 20260506133046 | 5 | 0 | 0.0 | 0.0 | 0.00 | 0.00 | 0.00 | 88 | 1020.5 |
| 20260506131548 | 5 | 0 | 0.0 | 0.0 | 0.00 | 0.00 | 0.00 | 88 | 1020.4 |
| 20260506130046 | 5 | 0 | 0.0 | 0.0 | 0.00 | 0.00 | 0.00 | 89 | 1020.0 |
| 20260506124546 | 5 | 0 | 0.0 | 0.0 | 0.00 | 0.00 | 0.00 | 88 | 1019.7 |
| 20260506123046 | 5 | 0 | 0.0 | 0.0 | 0.00 | 0.00 | 0.00 | 88 | 1019.5 |
| 20260506121542 | 6 | 0 | 0.0 | 0.0 | 0.00 | 0.00 | 0.00 | 89 | 1019.3 |
| 20260506120048 | 6 | 0 | 0.0 | 0.0 | 0.00 | 0.00 | 0.00 | 89 | 1019.0 |
| 20260506114543 | 6 | 0 | 0.0 | 0.0 | 0.00 | 0.03 | 0.00 | 89 | 1019.0 |
| 20260506113050 | 6 | 0 | 0.0 | 0.0 | 0.00 | 0.03 | 0.00 | 88 | 1018.8 |
| 20260506111543 | 6 | 0 | 0.0 | 0.0 | 0.00 | 0.03 | 0.00 | 88 | 1018.6 |
| 20260506110041 | 6 | 0 | 0.0 | 0.0 | 0.00 | 0.03 | 0.00 | 87 | 1018.4 |
| 20260506104554 | 6 | 0 | 0.0 | 0.0 | 0.00 | 0.10 | 0.00 | 84 | 1018.2 |
| 20260506103044 | 7 | 0 | 0.0 | 0.0 | 0.00 | 0.10 | 0.00 | 84 | 1018.2 |
| 20260506101551 | 7 | 0 | 0.0 | 0.0 | 0.00 | 0.10 | 0.00 | 83 | 1017.9 |
| 20260506100045 | 7 | 0 | 0.0 | 0.0 | 0.00 | 0.10 | 0.00 | 83 | 1017.7 |
| 20260506094544 | 7 | 0 | 0.0 | 0.0 | 0.00 | 0.30 | 0.00 | 81 | 1017.6 |
| 20260506093039 | 7 | 0 | 0.0 | 0.0 | 0.00 | 0.30 | 0.00 | 80 | 1017.5 |
| 20260506091539 | 8 | 0 | 0.0 | 0.0 | 0.00 | 0.30 | 0.00 | 78 | 1017.5 |
| 20260506090039 | 9 | 0 | 0.0 | 0.0 | 0.00 | 0.30 | 0.00 | 74 | 1017.2 |
| 20260506084542 | 10 | 0 | 0.0 | 1.6 | 0.00 | 0.43 | 0.00 | 70 | 1017.3 |
| 20260506083042 | 11 | 0 | 1.6 | 14.5 | 0.00 | 0.43 | 0.00 | 66 | 1017.3 |
| 20260506081540 | 12 | 150 | 4.8 | 20.9 | 0.00 | 0.43 | 0.00 | 64 | 1017.2 |
| 20260506073047 | 10 | 0 | 0.0 | 4.8 | 0.00 | 0.51 | 0.00 | 73 | 1017.0 |
| 20260506071544 | 10 | 0 | 0.0 | 4.8 | 0.00 | 0.51 | 0.00 | 74 | 1017.0 |
| 20260506061553 | 11 | 238 | 9.7 | 17.7 | 0.00 | 0.58 | 0.51 | 72 | 1016.6 |
| 20260506044539 | 11 | 0 | 0.0 | 6.4 | 0.00 | 0.76 | 0.51 | 72 | 1015.1 |
| 20260506043046 | 13 | 0 | 3.2 | 9.7 | 0.00 | 0.76 | 0.51 | 65 | 1014.8 |
| 20260506041540 | 14 | 83 | 1.6 | 17.7 | 0.00 | 0.76 | 0.51 | 59 | 1014.5 |
| 20260506040048 | 15 | 150 | 1.6 | 22.5 | 0.00 | 0.76 | 0.51 | 58 | 1014.5 |
| 20260506034545 | 13 | 186 | 4.8 | 8.0 | 0.00 | 0.76 | 0.51 | 64 | 1014.5 |
| 20260506033043 | 14 | 178 | 4.8 | 14.5 | 0.00 | 0.76 | 0.51 | 59 | 1014.3 |
| 20260506031539 | 15 | 235 | 4.8 | 16.1 | 0.00 | 0.76 | 0.51 | 57 | 1013.8 |
| 20260506030046 | 15 | 0 | 1.6 | 9.7 | 0.00 | 0.76 | 0.51 | 54 | 1013.7 |
| 20260506024549 | 15 | 261 | 1.6 | 9.7 | 0.00 | 0.79 | 0.51 | 58 | 1013.6 |
| 20260506023059 | 15 | 0 | 0.0 | 6.4 | 0.00 | 0.79 | 0.51 | 59 | 1013.3 |
| 20260506021553 | 16 | 186 | 4.8 | 8.0 | 0.00 | 0.79 | 0.51 | 56 | 1013.1 |
| 20260506020041 | 17 | 165 | 3.2 | 8.0 | 0.00 | 0.79 | 0.51 | 50 | 1013.1 |
| 20260506014547 | 17 | 183 | 3.2 | 9.7 | 0.00 | 0.81 | 0.51 | 48 | 1013.0 |
| 20260506013043 | 17 | 161 | 4.8 | 11.3 | 0.00 | 0.81 | 0.51 | 48 | 1013.1 |
| 20260506011544 | 17 | 180 | 4.8 | 12.9 | 0.00 | 0.81 | 0.51 | 50 | 1013.1 |
| 20260506010049 | 17 | 177 | 3.2 | 9.7 | 0.00 | 0.81 | 0.51 | 48 | 1013.1 |
| 20260506004548 | 17 | 197 | 4.8 | 11.3 | 0.00 | 0.81 | 0.51 | 48 | 1013.2 |
| 20260506003045 | 17 | 223 | 4.8 | 11.3 | 0.00 | 0.81 | 0.51 | 48 | 1013.1 |
| 20260506001547 | 17 | 165 | 4.8 | 14.5 | 0.00 | 0.81 | 0.51 | 48 | 1013.3 |
| 20260506000041 | 17 | 168 | 3.2 | 12.9 | 0.00 | 0.81 | 0.51 | 50 | 1013.1 |
| 20260505234559 | 17 | 140 | 6.4 | 14.5 | 0.00 | 0.81 | 0.51 | 49 | 1013.1 |
| 20260505233043 | 17 | 155 | 3.2 | 11.3 | 0.00 | 0.81 | 0.51 | 50 | 1013.2 |
| 20260505231544 | 17 | 197 | 3.2 | 9.7 | 0.00 | 0.81 | 0.51 | 52 | 1013.4 |
| 20260505230041 | 17 | 206 | 0.0 | 8.0 | 0.00 | 0.81 | 0.51 | 52 | 1013.6 |
| 20260505224541 | 16 | 248 | 4.8 | 12.9 | 0.00 | 0.81 | 0.51 | 53 | 1013.8 |
| 20260505223041 | 16 | 246 | 3.2 | 14.5 | 0.00 | 0.81 | 0.51 | 54 | 1013.8 |
| 20260505221546 | 16 | 34 | 4.8 | 12.9 | 0.00 | 0.81 | 0.51 | 54 | 1013.9 |
| 20260505220048 | 15 | 144 | 1.6 | 14.5 | 0.00 | 0.81 | 0.51 | 57 | 1014.0 |
| 20260505214603 | 15 | 0 | 3.2 | 12.9 | 0.00 | 0.81 | 0.51 | 61 | 1014.2 |
| 20260505213051 | 14 | 219 | 4.8 | 11.3 | 0.00 | 0.81 | 0.51 | 63 | 1014.3 |
| 20260505211539 | 14 | 217 | 6.4 | 12.9 | 0.00 | 0.81 | 0.51 | 63 | 1014.6 |
| 20260505210054 | 14 | 338 | 4.8 | 12.9 | 0.00 | 0.81 | 0.51 | 64 | 1014.6 |
| 20260505204555 | 13 | 185 | 4.8 | 14.5 | 0.00 | 0.81 | 0.51 | 70 | 1014.6 |
| 20260505203050 | 13 | 141 | 3.2 | 11.3 | 0.00 | 0.81 | 0.51 | 71 | 1014.7 |
| 20260505201541 | 12 | 143 | 1.6 | 9.7 | 0.00 | 0.81 | 0.51 | 71 | 1014.8 |
| 20260505200100 | 12 | 86 | 1.6 | 11.3 | 0.00 | 0.81 | 0.51 | 70 | 1015.0 |
| 20260505194548 | 11 | 0 | 3.2 | 9.7 | 0.00 | 0.81 | 0.51 | 73 | 1015.1 |
| 20260505193050 | 11 | 146 | 3.2 | 12.9 | 0.00 | 0.81 | 0.51 | 74 | 1015.1 |
| 20260505191544 | 10 | 0 | 3.2 | 11.3 | 0.00 | 0.81 | 0.51 | 74 | 1015.1 |
| 20260505190043 | 10 | 165 | 6.4 | 14.5 | 0.00 | 0.81 | 0.51 | 73 | 1015.0 |
| 20260505184539 | 9 | 0 | 4.8 | 11.3 | 0.00 | 0.81 | 0.51 | 75 | 1015.0 |
| 20260505183046 | 8 | 0 | 0.0 | 6.4 | 0.00 | 0.81 | 0.51 | 79 | 1015.0 |
| 20260505181544 | 8 | 0 | 0.0 | 0.0 | 0.00 | 0.81 | 0.51 | 78 | 1015.0 |
| 20260505180103 | 8 | 0 | 0.0 | 0.0 | 0.00 | 0.81 | 0.51 | 77 | 1014.8 |
| 20260505174559 | 8 | 0 | 0.0 | 0.0 | 0.00 | 0.81 | 0.51 | 80 | 1014.5 |
| 20260505173044 | 8 | 0 | 0.0 | 0.0 | 0.00 | 0.81 | 0.51 | 80 | 1014.3 |
| 20260505171543 | 7 | 0 | 1.6 | 4.8 | 0.00 | 0.81 | 0.51 | 82 | 1014.1 |
| 20260505170038 | 7 | 0 | 0.0 | 6.4 | 0.00 | 0.81 | 0.51 | 84 | 1014.0 |
| 20260505164549 | 7 | 133 | 0.0 | 6.4 | 0.00 | 0.81 | 0.51 | 84 | 1014.0 |
| 20260505163040 | 7 | 92 | 0.0 | 3.2 | 0.00 | 0.81 | 0.51 | 84 | 1013.8 |
| 20260505161540 | 7 | 0 | 0.0 | 3.2 | 0.00 | 0.81 | 0.51 | 87 | 1013.7 |
| 20260505153045 | 6 | 160 | 3.2 | 8.0 | 0.00 | 0.81 | 0.51 | 87 | 1013.4 |
| 20260505151543 | 6 | 173 | 0.0 | 8.0 | 0.00 | 0.81 | 0.51 | 88 | 1013.4 |